Radiation Dose measured at exhaust stack monitor of Fukushima Daiichi Nuclear Power Station
Date,Time,Unit 5 6 shared exhaust cylinders,Wind Direction,Wind Velocity(m/s)
2021/10/16,00:00,3.9,north-northwest,7.3
2021/10/16,00:10,3.8,north,6.8
2021/10/16,00:20,4.1,north-northwest,6.8
2021/10/16,00:30,3.9,north-northwest,6.3
2021/10/16,00:40,3.7,north-northwest,6.5
2021/10/16,00:50,3.9,north-northwest,7.6
2021/10/16,01:00,4.0,north-northwest,6.0
2021/10/16,01:10,3.9,north-northwest,6.3
2021/10/16,01:20,3.8,northwest,5.8
2021/10/16,01:30,3.9,north-northwest,5.7
2021/10/16,01:40,3.8,north-northwest,6.5
2021/10/16,01:50,3.9,north-northwest,6.6
2021/10/16,02:00,3.8,north-northwest,6.5
2021/10/16,02:10,3.9,northwest,6.3
2021/10/16,02:20,3.8,northwest,5.4
2021/10/16,02:30,3.9,northwest,5.4
2021/10/16,02:40,3.9,northwest,5.8
2021/10/16,02:50,3.7,northwest,5.3
2021/10/16,03:00,3.9,northwest,5.1
2021/10/16,03:10,4.0,north-northwest,4.9
2021/10/16,03:20,3.7,north-northwest,4.9
2021/10/16,03:30,3.6,north-northwest,4.4
2021/10/16,03:40,4.0,north-northwest,5.0
2021/10/16,03:50,3.9,north-northwest,3.9
2021/10/16,04:00,3.9,north-northwest,3.6
2021/10/16,04:10,3.8,north-northwest,3.9
2021/10/16,04:20,3.7,north,3.2
2021/10/16,04:30,3.9,north-northeast,2.3
2021/10/16,04:40,3.9,north,1.7
2021/10/16,04:50,4.0,north-northwest,3.0
2021/10/16,05:00,3.7,northeast,6.0
2021/10/16,05:10,3.8,northeast,4.8
2021/10/16,05:20,4.0,northeast,4.3
2021/10/16,05:30,3.9,northeast,4.6
2021/10/16,05:40,3.8,north-northeast,2.9
2021/10/16,05:50,3.9,north,3.4
2021/10/16,06:00,3.9,north-northeast,2.9
2021/10/16,06:10,4.0,northeast,2.8
2021/10/16,06:20,3.9,east-northeast,4.6
2021/10/16,06:30,3.8,east-northeast,6.2
2021/10/16,06:40,3.8,east-northeast,5.4
2021/10/16,06:50,3.7,northeast,5.3
2021/10/16,07:00,4.2,east-northeast,4.8
2021/10/16,07:10,3.9,east-northeast,4.2
2021/10/16,07:20,3.9,east-northeast,4.9
2021/10/16,07:30,4.0,east-northeast,4.2
2021/10/16,07:40,3.9,east-northeast,3.7
2021/10/16,07:50,3.8,northeast,3.4
2021/10/16,08:00,4.0,east-northeast,3.6
2021/10/16,08:10,3.9,northeast,2.5
2021/10/16,08:20,3.8,northeast,3.0
2021/10/16,08:30,3.7,north-northeast,3.2
2021/10/16,08:40,3.8,north-northeast,3.2
2021/10/16,08:50,3.9,north-northeast,2.6
2021/10/16,09:00,3.9,north-northeast,2.6
2021/10/16,09:10,3.9,north-northeast,2.9
2021/10/16,09:20,3.8,north-northwest,3.0
2021/10/16,09:30,3.9,northwest,3.3
2021/10/16,09:40,3.9,north-northwest,3.4
2021/10/16,09:50,4.0,north-northwest,2.8
2021/10/16,10:00,3.7,northwest,2.3
2021/10/16,10:10,3.9,northwest,2.6
2021/10/16,10:20,3.9,north-northwest,3.6
2021/10/16,10:30,4.0,north-northwest,3.5
2021/10/16,10:40,3.9,north-northwest,4.0
2021/10/16,10:50,3.9,north-northwest,3.8
2021/10/16,11:00,3.8,north-northwest,3.8
2021/10/16,11:10,3.7,north-northwest,4.6
2021/10/16,11:20,4.0,north,4.6
2021/10/16,11:30,4.1,north-northwest,4.3
2021/10/16,11:40,3.8,north-northwest,4.1
2021/10/16,11:50,3.8,north-northwest,3.1
2021/10/16,12:00,3.7,north-northwest,4.1
2021/10/16,12:10,3.7,northwest,4.2
2021/10/16,12:20,3.9,north-northwest,3.9
2021/10/16,12:30,3.9,north-northwest,3.1
2021/10/16,12:40,3.8,north-northwest,3.2
2021/10/16,12:50,4.0,north-northwest,4.1
2021/10/16,13:00,3.9,north-northwest,3.5
2021/10/16,13:10,3.9,north-northwest,3.5
2021/10/16,13:20,4.0,northwest,2.3
2021/10/16,13:30,3.7,north-northwest,3.5
2021/10/16,13:40,3.9,north-northwest,4.3
2021/10/16,13:50,3.9,north,4.2
2021/10/16,14:00,4.1,west-northwest,2.3
2021/10/16,14:10,3.8,west-northwest,3.1
2021/10/16,14:20,3.8,north-northwest,4.5
2021/10/16,14:30,3.9,north-northwest,4.4
2021/10/16,14:40,4.1,northwest,5.0
2021/10/16,14:50,4.0,northwest,4.3
2021/10/16,15:00,3.8,northwest,3.9
2021/10/16,15:10,3.8,northwest,2.6
2021/10/16,15:20,3.7,northwest,3.3
2021/10/16,15:30,3.8,north-northwest,3.5
2021/10/16,15:40,3.8,northwest,4.8
2021/10/16,15:50,3.9,north-northwest,3.7
2021/10/16,16:00,3.9,northwest,3.5
2021/10/16,16:10,4.0,northwest,3.8
2021/10/16,16:20,3.8,northwest,3.3
2021/10/16,16:30,3.9,northwest,3.4
2021/10/16,16:40,3.7,northwest,4.4
2021/10/16,16:50,3.8,northwest,3.8
2021/10/16,17:00,3.9,north-northwest,4.9
2021/10/16,17:10,3.9,north-northwest,4.4
2021/10/16,17:20,3.7,north-northwest,4.4
2021/10/16,17:30,3.8,northwest,4.2
2021/10/16,17:40,3.8,northwest,4.5
2021/10/16,17:50,4.0,northwest,3.5
2021/10/16,18:00,3.9,north-northwest,3.6
2021/10/16,18:10,3.9,north-northwest,4.0
2021/10/16,18:20,4.0,north-northwest,4.0
2021/10/16,18:30,3.9,north-northwest,3.7
2021/10/16,18:40,3.8,north-northwest,3.3
2021/10/16,18:50,3.9,northwest,2.9
2021/10/16,19:00,3.9,northwest,2.9
2021/10/16,19:10,4.0,northwest,2.6
2021/10/16,19:20,3.9,north-northwest,2.6
2021/10/16,19:30,3.7,north-northwest,1.9
2021/10/16,19:40,3.9,north,1.5
2021/10/16,19:50,3.9,north,2.0
2021/10/16,20:00,4.0,north-northwest,1.7
2021/10/16,20:10,3.8,north-northwest,1.5
2021/10/16,20:20,3.8,north-northeast,0.9
2021/10/16,20:30,3.9,north-northeast,1.1
2021/10/16,20:40,3.9,east-northeast,0.8
2021/10/16,20:50,3.9,-,CALM
2021/10/16,21:00,3.8,northwest,1.2
2021/10/16,21:10,3.8,west-northwest,0.8
2021/10/16,21:20,4.0,-,CALM
2021/10/16,21:30,3.8,southwest,0.8
2021/10/16,21:40,3.9,south-southwest,0.9
2021/10/16,21:50,4.1,south-southwest,1.5
2021/10/16,22:00,3.8,west,0.9
2021/10/16,22:10,4.0,west,0.6
2021/10/16,22:20,3.9,south-southwest,2.0
2021/10/16,22:30,3.9,southwest,1.5
2021/10/16,22:40,3.9,southwest,2.2
2021/10/16,22:50,4.0,south-southwest,1.4
2021/10/16,23:00,3.8,south,2.6
2021/10/16,23:10,3.8,south-southeast,2.0
2021/10/16,23:20,3.8,south-southeast,1.2
2021/10/16,23:30,3.9,southeast,0.9
2021/10/16,23:40,3.8,south-southeast,0.9
2021/10/16,23:50,3.7,east-southeast,2.0
